Regional Weather Roundup
Issued by NWS

Home | Current Version | Previous Version | Graphics & Text | Print | Product List | Glossary On
Versions: 1 2 3 4 5 6 7 8 9 10 11 12 13 14 15 16 17 18 19 20 21 22 23 24 25 26 27 28 29 30 31 32 33 34 35 36 37 38 39 40 41 42 43 44 45 46 47 48 49 50
000
ASUS43 KIND 221909
RWRIN

WEATHER ROUNDUP FOR INDIANA
NATIONAL WEATHER SERVICE INDIANAPOLIS IN
300 PM EDT SUN OCT 22 2017

NOTE: "FAIR" INDICATES FEW OR NO CLOUDS BELOW 12,000 FEET WITH NO
SIGNIFICANT WEATHER AND/OR OBSTRUCTIONS TO VISIBILITY.

* - STATION DOES NOT REPORT WEATHER SUCH AS PRECIPITATION OR FOG.

+ - STATION NOT QUALITY CONTROLLED BY THE NATIONAL WEATHER SERVICE.
    USE DATA WITH CAUTION...ESPECIALLY DEWPOINT AND RELATIVE
    HUMIDITY OBSERVATIONS.

INZ001>003-010>013-019-020-222000-
NORTHWEST INDIANA

CITY           SKY/WX    TMP DP  RH WIND       PRES   REMARKS
GARY /AIRPORT/ CLOUDY    73  59  60 S9        29.93F
KNOX *+        CLOUDY    72  59  64 S13       29.97F
LA PORTE +     CLOUDY    71  59  64 S15G22    29.97F
MICHIGAN CITY+   N/A     73  59  60 S14       29.95
MONTICELLO +   PTSUNNY   76  58  54 S14G21    29.97F
RENSSELAER +   PTSUNNY   73  50  43 S21G26    29.96F
VALPARAISO     PTSUNNY   73  60  63 S14G35    29.96F

$$

LMZ046-743>745-222000-
SOUTHERN LAKE MICHIGAN

STATION/POSITION TIME  TEMP    WIND        PRES    WAVE
                       AIR SEA DIR/SP/G            HT
                 (UTC) (F)     (DEG/KT/KT) (MB)    (FT)
BURNS HARBOR     1837   72     190/ 18/ 26 1013.5F
MICHIGAN CITY    1840   72     170/ 18/ 23   N/A
5NW MICH CITY    1900   69 58  190/ 17/ 23   N/A     2

$$

INZ004-005-014>016-021>024-222000-
NORTH CENTRAL INDIANA

CITY           SKY/WX    TMP DP  RH WIND       PRES   REMARKS
GOSHEN         CLOUDY    75  56  51 S20G28    29.99F
LOGANSPORT +   PTSUNNY   75  59  57 S13G20    29.99F
SOUTH BEND     CLOUDY    72  60  66 S15G28    29.97F
WARSAW +       MOSUNNY   73  59  60 S9G18     30.00F

$$

INZ006>009-017-018-025>027-222000-
NORTHEAST INDIANA

CITY           SKY/WX    TMP DP  RH WIND       PRES   REMARKS
AUBURN +       PTSUNNY   75  54  46 S9        30.04F
FORT WAYNE     CLOUDY    78  56  46 S18       30.04F
HUNTINGTON +   MOSUNNY   78  56  47 S10G20    30.02F
KENDALLVILLE + CLOUDY    74  58  55 S16G23    30.04F

$$

INZ028-029-035-036-043>045-051>053-222000-
WEST CENTRAL INDIANA

CITY           SKY/WX    TMP DP  RH WIND       PRES   REMARKS
CRAWFORDSVL +  MOSUNNY   75  59  57 S14G20    29.99F
GREENCASTLE +  PTSUNNY   73  55  53 S12G20    30.01S
LAFAYETTE      PTSUNNY   75  59  57 S12G21    29.97F
TERRE HAUTE    PTSUNNY   78  58  49 S20G26    29.98F

$$

INZ030>032-037>040-046>048-054>057-064-065-222000-
CENTRAL INDIANA

CITY           SKY/WX    TMP DP  RH WIND       PRES   REMARKS
CP ATTERBURY + MOSUNNY   77  55  47 S17G23    30.05F
COLUMBUS       MOSUNNY   77  50  38 S21G26    30.05F
FISHERS *+     SUNNY     77  63  61 S17G25    30.02F
FRANKFORT +    CLOUDY    78  61  55 SW13G21   30.02S
GREENWOOD *+   SUNNY     80  60  49 S16       30.05F
INDIANAPOLIS   PTSUNNY   76  59  55 S17       30.02F
-EAGLE CREEK   MOSUNNY   78  58  49 S13G24    30.01F
KOKOMO +       MOSUNNY   76  59  55 S20       30.01F
MARION +       SUNNY     77  57  50 S21G26    30.04F
MT COMFORT *+  SUNNY     77  63  61 S14G22    30.04F
SHELBYVILLE    SUNNY     78  56  46 S17G24    30.05F
ZIONSVILLE +   CLOUDY    74  58  56 S17G26    30.02F

$$

INZ033-034-041-042-049-050-058-059-222000-
EAST CENTRAL INDIANA

CITY           SKY/WX    TMP DP  RH WIND       PRES   REMARKS
MUNCIE         SUNNY     79  56  45 S14G26    30.05F
RICHMOND +     SUNNY     73  54  49 S17       30.11F

$$

INZ060-061-067>069-081>083-085>088-222000-
SOUTHWEST INDIANA

CITY           SKY/WX    TMP DP  RH WIND       PRES   REMARKS
EVANSVILLE     CLOUDY    76  58  53 S12       30.02F
HUNTINGBURG +  CLOUDY    75  59  57 S16G25    30.05F
WASHINGTON +   CLOUDY    77  55  45 S24       30.02S

$$

INZ062-063-066-070>080-084-089>092-222000-
SOUTH CENTRAL AND SOUTHEAST INDIANA

CITY           SKY/WX    TMP DP  RH WIND       PRES   REMARKS
BEDFORD +      MOSUNNY   77  55  47 S15G24    30.05F
BLOOMINGTON    PTSUNNY   77  57  50 S18G28    30.03F
MADISON *+     MOSUNNY   77  52  41 SE13      30.11F
NORTH VERNON + MOSUNNY   73  57  56 S10       30.09F
SEYMOUR +      MOSUNNY   79  57  47 S15G22    30.06F

$$




USA.gov is the U.S. government's official web portal to all federal, state and local government web resources and services.